Location: Oshawa
(43.9000°N, 78.8670°W)
Time: 06:00:11
(UTC-04:00)

CZ-4C R/B - Visible Passes

Search period start: 29 August 2014 00:00
Search period end: 08 September 2014 00:00
Orbit: 437 x 558 km, 97.6° (Epoch: 26 August)

Date Brightness Start Highest point End Pass type
(mag) Time Alt. Az. Time Alt. Az. Time Alt. Az.
29 Aug 5.6 22:35:44 16° NNE 22:35:44 16° NNE 22:36:44 10° NNE visible
30 Aug 6.5 00:10:22 11° NW 00:10:22 11° NW 00:10:28 10° NW visible
30 Aug 5.8 22:15:12 11° NE 22:15:12 11° NE 22:15:29 10° NNE visible
30 Aug 6.3 23:49:50 14° NNW 23:49:50 14° NNW 23:50:21 10° NNW visible
31 Aug 6.1 23:29:16 15° NNW 23:29:16 15° NNW 23:30:00 10° NNW visible
01 Sep 5.9 23:08:42 15° N 23:08:42 15° N 23:09:26 10° N visible
02 Sep 5.9 22:48:08 13° NNE 22:48:08 13° NNE 22:48:39 10° N visible
03 Sep 6.0 22:27:32 10° NNE 22:27:32 10° NNE 22:27:35 10° NNE visible
05 Sep 6.4 23:20:56 10° N 23:20:56 10° N 23:21:00 10° N visible
